Time,TemperatureF,DewpointF,PressureIn,WindDirection,WindDirectionDegrees,WindSpeedMPH,WindSpeedGustMPH,Humidity,HourlyPrecipIn,Conditions,Clouds,dailyrainin,SoftwareType,DateUTC
2013-11-15 00:03:00,39.3,13.9,29.70,West,271,6.0,6.0,35,0.00,CLR,,0.00,WeatherDisplay:10.37,2013-11-15 07:03:00,
2013-11-15 00:09:00,39.5,14.1,29.69,SW,229,9.2,9.2,35,0.00,CLR,,0.00,WeatherDisplay:10.37,2013-11-15 07:09:00,
2013-11-15 00:14:00,39.2,13.8,29.70,East,80,8.1,8.1,35,0.00,CLR,,0.00,WeatherDisplay:10.37,2013-11-15 07:14:00,
2013-11-15 00:19:00,39.2,11.8,29.70,SSW,209,3.5,3.5,32,0.00,CLR,,0.00,WeatherDisplay:10.37,2013-11-15 07:19:00,
2013-11-15 00:24:00,38.9,12.9,29.70,West,276,6.0,6.0,34,0.00,CLR,,0.00,WeatherDisplay:10.37,2013-11-15 07:24:00,
2013-11-15 00:29:00,38.9,11.5,29.70,WNW,285,4.6,4.6,32,0.00,CLR,,0.00,WeatherDisplay:10.37,2013-11-15 07:29:00,
2013-11-15 00:34:00,38.8,11.4,29.70,SW,223,9.2,9.2,32,0.00,CLR,,0.00,WeatherDisplay:10.37,2013-11-15 07:34:00,
2013-11-15 00:39:00,38.6,10.5,29.70,NW,306,3.5,3.5,31,0.00,CLR,,0.00,WeatherDisplay:10.37,2013-11-15 07:39:00,
2013-11-15 00:44:00,38.5,9.7,29.69,South,183,4.6,4.6,30,0.00,CLR,,0.00,WeatherDisplay:10.37,2013-11-15 07:44:00,
2013-11-15 00:49:00,38.8,10.7,29.69,NE,47,3.5,3.5,31,0.00,CLR,,0.00,WeatherDisplay:10.37,2013-11-15 07:49:00,
2013-11-15 00:54:00,38.8,10.0,29.69,West,280,3.5,3.5,30,0.00,CLR,,0.00,WeatherDisplay:10.37,2013-11-15 07:54:00,
2013-11-15 00:59:00,38.6,9.0,29.69,WSW,246,5.8,5.8,29,0.00,CLR,,0.00,WeatherDisplay:10.37,2013-11-15 07:59:00,
2013-11-15 01:04:00,38.8,10.7,29.68,WNW,294,16.1,16.1,31,0.00,CLR,,0.00,WeatherDisplay:10.37,2013-11-15 08:04:00,
2013-11-15 01:09:00,38.8,9.2,29.68,WSW,256,9.2,9.2,29,0.00,CLR,,0.00,WeatherDisplay:10.37,2013-11-15 08:09:00,
2013-11-15 01:14:00,38.8,7.6,29.67,WSW,242,2.0,2.0,27,0.00,CLR,,0.00,WeatherDisplay:10.37,2013-11-15 08:14:00,
2013-11-15 01:19:00,38.9,7.7,29.68,WNW,284,9.2,9.2,27,0.00,CLR,,0.00,WeatherDisplay:10.37,2013-11-15 08:19:00,
2013-11-15 01:24:00,38.6,8.2,29.68,SW,229,6.9,6.9,28,0.00,CLR,,0.00,WeatherDisplay:10.37,2013-11-15 08:24:00,
2013-11-15 01:29:00,38.6,7.4,29.68,WNW,288,6.9,6.9,27,0.00,CLR,,0.00,WeatherDisplay:10.37,2013-11-15 08:29:00,
2013-11-15 01:34:00,38.5,9.7,29.67,WSW,257,12.7,12.7,30,0.00,CLR,,0.00,WeatherDisplay:10.37,2013-11-15 08:34:00,
2013-11-15 01:39:00,38.0,7.7,29.67,West,269,3.5,3.5,28,0.00,CLR,,0.00,WeatherDisplay:10.37,2013-11-15 08:39:00,
2013-11-15 01:44:00,38.0,7.7,29.67,West,263,6.9,6.9,28,0.00,CLR,,0.00,WeatherDisplay:10.37,2013-11-15 08:44:00,
2013-11-15 01:49:00,38.0,7.7,29.67,West,269,2.3,2.3,28,0.00,CLR,,0.00,WeatherDisplay:10.37,2013-11-15 08:49:00,
2013-11-15 01:54:00,37.6,6.6,29.67,West,275,3.5,3.5,27,0.00,CLR,,0.00,WeatherDisplay:10.37,2013-11-15 08:54:00,
2013-11-15 01:59:00,37.8,8.3,29.67,WSW,244,6.9,6.9,29,0.00,CLR,,0.00,WeatherDisplay:10.37,2013-11-15 08:59:00,
2013-11-15 02:04:00,37.8,9.1,29.67,WSW,244,5.8,5.8,30,0.00,CLR,,0.00,WeatherDisplay:10.37,2013-11-15 09:04:00,
2013-11-15 02:09:00,37.5,9.6,29.67,WNW,283,2.3,2.3,31,0.00,CLR,,0.00,WeatherDisplay:10.37,2013-11-15 09:09:00,
2013-11-15 02:14:00,37.2,10.7,29.67,West,268,6.9,6.9,33,0.00,CLR,,0.00,WeatherDisplay:10.37,2013-11-15 09:14:00,
2013-11-15 02:19:00,36.9,11.1,29.67,West,269,8.1,8.1,34,0.00,CLR,,0.00,WeatherDisplay:10.37,2013-11-15 09:19:00,
2013-11-15 02:24:00,37.0,9.1,29.67,WNW,284,6.0,6.0,31,0.00,CLR,,0.00,WeatherDisplay:10.37,2013-11-15 09:24:00,
2013-11-15 02:29:00,36.9,10.4,29.66,South,180,3.5,3.5,33,0.00,CLR,,0.00,WeatherDisplay:10.37,2013-11-15 09:29:00,
2013-11-15 02:34:00,36.9,13.0,29.66,WNW,299,8.1,8.1,37,0.00,CLR,,0.00,WeatherDisplay:10.37,2013-11-15 09:34:00,
2013-11-15 02:39:00,36.8,14.1,29.66,West,263,5.8,5.8,39,0.00,CLR,,0.00,WeatherDisplay:10.37,2013-11-15 09:39:00,
2013-11-15 02:44:00,36.3,13.7,29.66,NW,306,8.1,8.1,39,0.00,CLR,,0.00,WeatherDisplay:10.37,2013-11-15 09:44:00,
2013-11-15 02:49:00,36.0,14.5,29.65,WNW,285,8.1,8.1,41,0.00,CLR,,0.00,WeatherDisplay:10.37,2013-11-15 09:49:00,
2013-11-15 02:54:00,36.0,12.8,29.64,WNW,287,11.5,11.5,38,0.00,CLR,,0.00,WeatherDisplay:10.37,2013-11-15 09:54:00,
2013-11-15 02:59:00,35.9,13.9,29.63,WSW,256,17.3,17.3,40,0.00,CLR,,0.00,WeatherDisplay:10.37,2013-11-15 09:59:00,
2013-11-15 03:04:00,35.9,13.9,29.63,WSW,247,4.6,4.6,40,0.00,CLR,,0.00,WeatherDisplay:10.37,2013-11-15 10:04:00,
2013-11-15 03:09:00,35.8,13.8,29.64,SSW,213,12.7,12.7,40,0.00,CLR,,0.00,WeatherDisplay:10.37,2013-11-15 10:09:00,
2013-11-15 03:16:00,35.9,13.9,29.63,WSW,246,11.5,11.5,40,0.00,CLR,,0.00,WeatherDisplay:10.37,2013-11-15 10:16:00,
2013-11-15 03:21:00,35.9,13.3,29.64,SW,223,9.2,9.2,39,0.00,CLR,,0.00,WeatherDisplay:10.37,2013-11-15 10:21:00,
2013-11-15 03:26:00,35.8,12.6,29.63,SSW,202,16.1,16.1,38,0.00,CLR,,0.00,WeatherDisplay:10.37,2013-11-15 10:26:00,
2013-11-15 03:31:00,35.8,12.0,29.64,SW,215,11.5,11.5,37,0.00,CLR,,0.00,WeatherDisplay:10.37,2013-11-15 10:31:00,
2013-11-15 03:36:00,35.8,10.8,29.64,West,263,10.4,10.4,35,0.00,CLR,,0.00,WeatherDisplay:10.37,2013-11-15 10:36:00,
2013-11-15 03:41:00,35.8,10.8,29.64,West,266,7.0,7.4,35,0.00,CLR,,0.00,WeatherDisplay:10.37,2013-11-15 10:41:00,
2013-11-15 03:46:00,35.9,10.9,29.63,West,271,13.0,13.0,35,0.00,CLR,,0.00,WeatherDisplay:10.37,2013-11-15 10:46:00,
2013-11-15 03:51:00,36.0,11.0,29.63,WSW,241,12.7,12.7,35,0.00,CLR,,0.00,WeatherDisplay:10.37,2013-11-15 10:51:00,
2013-11-15 03:56:00,36.0,11.0,29.64,WNW,286,8.1,8.1,35,0.00,CLR,,0.00,WeatherDisplay:10.37,2013-11-15 10:56:00,
2013-11-15 04:01:00,36.0,10.3,29.64,SW,232,19.6,19.6,34,0.00,CLR,,0.00,WeatherDisplay:10.37,2013-11-15 11:01:00,
2013-11-15 04:06:00,36.0,10.3,29.64,SW,227,10.4,10.4,34,0.00,CLR,,0.00,WeatherDisplay:10.37,2013-11-15 11:06:00,
2013-11-15 04:11:00,36.0,11.0,29.64,SW,215,10.4,10.4,35,0.00,CLR,,0.00,WeatherDisplay:10.37,2013-11-15 11:11:00,
2013-11-15 04:16:00,35.9,8.2,29.63,WSW,246,11.5,11.5,31,0.00,CLR,,0.00,WeatherDisplay:10.37,2013-11-15 11:16:00,
2013-11-15 04:21:00,36.0,8.2,29.64,SW,220,11.5,11.5,31,0.00,CLR,,0.00,WeatherDisplay:10.37,2013-11-15 11:21:00,
2013-11-15 04:26:00,36.0,8.2,29.64,SSW,196,5.0,5.0,31,0.00,CLR,,0.00,WeatherDisplay:10.37,2013-11-15 11:26:00,
2013-11-15 04:31:00,36.0,8.2,29.63,WNW,292,10.4,10.4,31,0.00,CLR,,0.00,WeatherDisplay:10.37,2013-11-15 11:31:00,
2013-11-15 04:36:00,36.0,8.9,29.64,West,267,4.6,4.6,32,0.00,CLR,,0.00,WeatherDisplay:10.37,2013-11-15 11:36:00,
2013-11-15 04:41:00,35.9,8.9,29.64,WNW,301,9.2,9.2,32,0.00,CLR,,0.00,WeatherDisplay:10.37,2013-11-15 11:41:00,
2013-11-15 04:46:00,35.8,9.5,29.64,WSW,239,10.4,10.4,33,0.00,CLR,,0.00,WeatherDisplay:10.37,2013-11-15 11:46:00,
2013-11-15 04:51:00,35.5,9.2,29.64,SSW,208,13.8,13.8,33,0.00,CLR,,0.00,WeatherDisplay:10.37,2013-11-15 11:51:00,
2013-11-15 04:56:00,35.3,10.3,29.64,SW,223,8.1,8.1,35,0.00,CLR,,0.00,WeatherDisplay:10.37,2013-11-15 11:56:00,
2013-11-15 05:01:00,35.3,9.7,29.64,SW,225,9.2,9.2,34,0.00,CLR,,0.00,WeatherDisplay:10.37,2013-11-15 12:01:00,
2013-11-15 05:06:00,35.0,10.7,29.64,West,264,6.9,6.9,36,0.00,CLR,,0.00,WeatherDisplay:10.37,2013-11-15 12:06:00,
2013-11-15 05:11:00,34.7,10.4,29.64,WSW,239,17.3,17.3,36,0.00,CLR,,0.00,WeatherDisplay:10.37,2013-11-15 12:11:00,
2013-11-15 05:16:00,34.6,10.3,29.63,WSW,258,6.0,6.0,36,0.00,CLR,,0.00,WeatherDisplay:10.37,2013-11-15 12:16:00,
2013-11-15 05:21:00,34.4,10.2,29.63,West,261,8.1,8.1,36,0.00,CLR,,0.00,WeatherDisplay:10.37,2013-11-15 12:21:00,
2013-11-15 05:26:00,34.6,10.3,29.63,WSW,241,13.8,13.8,36,0.00,CLR,,0.00,WeatherDisplay:10.37,2013-11-15 12:26:00,
2013-11-15 05:31:00,34.6,9.7,29.64,NW,320,12.0,12.0,35,0.00,CLR,,0.00,WeatherDisplay:10.37,2013-11-15 12:31:00,
2013-11-15 05:36:00,34.7,9.1,29.63,SW,221,13.8,13.8,34,0.00,CLR,,0.00,WeatherDisplay:10.37,2013-11-15 12:36:00,
2013-11-15 05:41:00,34.9,8.7,29.63,SW,222,11.5,11.5,33,0.00,CLR,,0.00,WeatherDisplay:10.37,2013-11-15 12:41:00,
2013-11-15 05:46:00,35.0,8.1,29.62,WSW,246,15.0,15.0,32,0.00,CLR,,0.00,WeatherDisplay:10.37,2013-11-15 12:46:00,
2013-11-15 05:51:00,35.5,8.5,29.62,WSW,251,9.2,9.2,32,0.00,CLR,,0.00,WeatherDisplay:10.37,2013-11-15 12:51:00,
2013-11-15 05:56:00,35.6,8.6,29.62,SW,220,10.4,10.4,32,0.00,CLR,,0.00,WeatherDisplay:10.37,2013-11-15 12:56:00,
2013-11-15 06:01:00,35.6,9.3,29.62,WSW,257,11.5,11.5,33,0.00,CLR,,0.00,WeatherDisplay:10.37,2013-11-15 13:01:00,
2013-11-15 06:06:00,35.6,9.9,29.62,WSW,238,13.8,13.8,34,0.00,CLR,,0.00,WeatherDisplay:10.37,2013-11-15 13:06:00,
2013-11-15 06:11:00,35.6,9.3,29.62,SSW,213,16.1,16.1,33,0.00,CLR,,0.00,WeatherDisplay:10.37,2013-11-15 13:11:00,
2013-11-15 06:16:00,35.6,9.9,29.61,SW,227,19.6,19.6,34,0.00,CLR,,0.00,WeatherDisplay:10.37,2013-11-15 13:16:00,
2013-11-15 06:21:00,35.6,9.9,29.61,WNW,288,17.3,17.3,34,0.00,CLR,,0.00,WeatherDisplay:10.37,2013-11-15 13:21:00,
2013-11-15 06:26:00,35.6,9.9,29.61,WSW,248,15.0,15.0,34,0.00,CLR,,0.00,WeatherDisplay:10.37,2013-11-15 13:26:00,
2013-11-15 06:31:00,35.8,10.1,29.61,West,269,19.0,19.0,34,0.00,CLR,,0.00,WeatherDisplay:10.37,2013-11-15 13:31:00,
2013-11-15 06:36:00,35.6,9.9,29.60,WSW,242,16.1,16.1,34,0.00,CLR,,0.00,WeatherDisplay:10.37,2013-11-15 13:36:00,
2013-11-15 06:41:00,35.8,10.1,29.60,WSW,258,21.9,21.9,34,0.00,CLR,,0.00,WeatherDisplay:10.37,2013-11-15 13:41:00,
2013-11-15 06:46:00,35.6,9.9,29.60,WSW,248,15.0,15.0,34,0.00,CLR,,0.00,WeatherDisplay:10.37,2013-11-15 13:46:00,
2013-11-15 06:51:00,35.8,9.5,29.61,WSW,250,11.5,11.5,33,0.00,CLR,,0.00,WeatherDisplay:10.37,2013-11-15 13:51:00,
2013-11-15 06:56:00,35.6,9.9,29.61,South,170,12.7,12.7,34,0.00,CLR,,0.00,WeatherDisplay:10.37,2013-11-15 13:56:00,
2013-11-15 07:01:00,35.6,10.6,29.61,West,260,8.1,8.1,35,0.00,CLR,,0.00,WeatherDisplay:10.37,2013-11-15 14:01:00,
2013-11-15 07:06:00,35.6,9.9,29.61,WSW,238,13.8,13.8,34,0.00,CLR,,0.00,WeatherDisplay:10.37,2013-11-15 14:06:00,
2013-11-15 07:11:00,35.8,10.8,29.60,West,263,16.1,16.1,35,0.00,CLR,,0.00,WeatherDisplay:10.37,2013-11-15 14:11:00,
2013-11-15 07:16:00,35.9,10.9,29.61,WSW,256,24.2,24.2,35,0.00,CLR,,0.00,WeatherDisplay:10.37,2013-11-15 14:16:00,
2013-11-15 07:21:00,35.9,10.9,29.61,WNW,290,14.0,14.0,35,0.00,CLR,,0.00,WeatherDisplay:10.37,2013-11-15 14:21:00,
2013-11-15 07:26:00,36.0,11.0,29.61,WSW,238,11.5,11.5,35,0.00,CLR,,0.00,WeatherDisplay:10.37,2013-11-15 14:26:00,
2013-11-15 07:31:00,36.0,11.0,29.61,WSW,248,20.7,20.7,35,0.00,CLR,,0.00,WeatherDisplay:10.37,2013-11-15 14:31:00,
2013-11-15 07:36:00,36.0,11.0,29.62,West,261,12.7,12.7,35,0.00,CLR,,0.00,WeatherDisplay:10.37,2013-11-15 14:36:00,
2013-11-15 07:41:00,36.5,11.4,29.61,NW,311,17.0,17.0,35,0.00,CLR,,0.00,WeatherDisplay:10.37,2013-11-15 14:41:00,
2013-11-15 07:46:00,36.9,11.1,29.61,West,271,18.4,18.4,34,0.00,CLR,,0.00,WeatherDisplay:10.37,2013-11-15 14:46:00,
2013-11-15 07:51:00,37.3,11.5,29.61,WSW,249,15.0,15.0,34,0.00,CLR,,0.00,WeatherDisplay:10.37,2013-11-15 14:51:00,
2013-11-15 07:56:00,37.6,11.0,29.61,SW,232,12.7,12.7,33,0.00,CLR,,0.00,WeatherDisplay:10.37,2013-11-15 14:56:00,
2013-11-15 08:01:00,37.8,11.2,29.62,WSW,251,16.1,16.1,33,0.00,CLR,,0.00,WeatherDisplay:10.37,2013-11-15 15:01:00,
2013-11-15 08:06:00,37.9,11.3,29.62,SW,235,12.0,12.0,33,0.00,CLR,,0.00,WeatherDisplay:10.37,2013-11-15 15:06:00,
2013-11-15 08:11:00,38.0,11.4,29.62,SW,221,8.1,8.1,33,0.00,CLR,,0.00,WeatherDisplay:10.37,2013-11-15 15:11:00,
2013-11-15 08:16:00,38.0,10.7,29.62,WSW,258,18.4,18.4,32,0.00,CLR,,0.00,WeatherDisplay:10.37,2013-11-15 15:16:00,
2013-11-15 08:21:00,38.2,11.6,29.62,West,259,12.7,12.7,33,0.00,CLR,,0.00,WeatherDisplay:10.37,2013-11-15 15:21:00,
2013-11-15 08:26:00,38.2,10.9,29.62,SW,227,11.5,11.5,32,0.00,CLR,,0.00,WeatherDisplay:10.37,2013-11-15 15:26:00,
2013-11-15 08:31:00,38.2,10.9,29.62,WSW,252,12.7,12.7,32,0.00,CLR,,0.00,WeatherDisplay:10.37,2013-11-15 15:31:00,
2013-11-15 08:36:00,38.5,11.8,29.62,WSW,237,11.5,11.5,33,0.00,CLR,,0.00,WeatherDisplay:10.37,2013-11-15 15:36:00,
2013-11-15 08:41:00,38.6,11.2,29.62,WSW,252,11.5,11.5,32,0.00,CLR,,0.00,WeatherDisplay:10.37,2013-11-15 15:41:00,
2013-11-15 08:46:00,38.8,12.1,29.62,WSW,241,17.3,17.3,33,0.00,CLR,,0.00,WeatherDisplay:10.37,2013-11-15 15:46:00,
2013-11-15 08:51:00,39.1,12.4,29.62,SW,225,21.9,21.9,33,0.00,CLR,,0.00,WeatherDisplay:10.37,2013-11-15 15:51:00,
2013-11-15 08:56:00,39.2,11.8,29.61,SW,224,13.8,13.8,32,0.00,CLR,,0.00,WeatherDisplay:10.37,2013-11-15 15:56:00,
2013-11-15 09:01:00,39.3,12.6,29.61,SW,232,12.7,12.7,33,0.00,CLR,,0.00,WeatherDisplay:10.37,2013-11-15 16:01:00,
2013-11-15 09:06:00,39.3,12.6,29.61,SSW,210,10.4,10.4,33,0.00,CLR,,0.00,WeatherDisplay:10.37,2013-11-15 16:06:00,
2013-11-15 09:11:00,39.3,12.6,29.61,West,270,13.8,13.8,33,0.00,CLR,,0.00,WeatherDisplay:10.37,2013-11-15 16:11:00,
2013-11-15 09:16:00,39.3,12.6,29.61,SSW,211,17.3,17.3,33,0.00,CLR,,0.00,WeatherDisplay:10.37,2013-11-15 16:16:00,
2013-11-15 09:21:00,39.3,13.2,29.61,WSW,241,19.6,19.6,34,0.00,CLR,,0.00,WeatherDisplay:10.37,2013-11-15 16:21:00,
2013-11-15 09:26:00,39.3,12.6,29.61,WSW,242,18.4,18.4,33,0.00,CLR,,0.00,WeatherDisplay:10.37,2013-11-15 16:26:00,
2013-11-15 09:31:00,39.3,13.2,29.60,SW,231,8.1,8.6,34,0.00,CLR,,0.00,WeatherDisplay:10.37,2013-11-15 16:31:00,
2013-11-15 09:36:00,39.3,13.9,29.61,WSW,244,19.6,19.6,35,0.00,CLR,,0.00,WeatherDisplay:10.37,2013-11-15 16:36:00,
2013-11-15 09:42:00,39.6,13.5,29.61,WSW,257,16.1,16.1,34,0.00,CLR,,0.00,WeatherDisplay:10.37,2013-11-15 16:42:00,
2013-11-15 09:47:00,40.1,13.9,29.61,West,272,15.0,15.0,34,0.00,CLR,,0.00,WeatherDisplay:10.37,2013-11-15 16:47:00,
2013-11-15 09:52:00,40.5,13.6,29.61,SSW,200,10.0,10.0,33,0.00,CLR,,0.00,WeatherDisplay:10.37,2013-11-15 16:52:00,
2013-11-15 09:57:00,40.6,13.7,29.61,WSW,240,23.0,23.0,33,0.00,CLR,,0.00,WeatherDisplay:10.37,2013-11-15 16:57:00,
2013-11-15 10:02:00,40.8,13.9,29.61,WSW,238,11.5,11.5,33,0.00,CLR,,0.00,WeatherDisplay:10.37,2013-11-15 17:02:00,
2013-11-15 10:07:00,40.9,14.0,29.61,WSW,255,17.3,17.3,33,0.00,CLR,,0.00,WeatherDisplay:10.37,2013-11-15 17:07:00,
2013-11-15 10:12:00,41.1,14.1,29.62,West,276,18.4,18.4,33,0.00,CLR,,0.00,WeatherDisplay:10.37,2013-11-15 17:12:00,
2013-11-15 10:17:00,41.2,14.2,29.62,SW,232,10.4,10.4,33,0.00,CLR,,0.00,WeatherDisplay:10.37,2013-11-15 17:17:00,
2013-11-15 10:22:00,41.2,14.2,29.62,WSW,241,14.0,14.0,33,0.00,CLR,,0.00,WeatherDisplay:10.37,2013-11-15 17:22:00,
2013-11-15 10:27:00,41.3,14.3,29.62,WNW,283,12.0,12.0,33,0.00,CLR,,0.00,WeatherDisplay:10.37,2013-11-15 17:27:00,
2013-11-15 10:32:00,41.2,14.2,29.62,West,267,13.0,13.0,33,0.00,CLR,,0.00,WeatherDisplay:10.37,2013-11-15 17:32:00,
2013-11-15 10:37:00,41.2,14.9,29.62,SSW,204,9.2,9.2,34,0.00,CLR,,0.00,WeatherDisplay:10.37,2013-11-15 17:37:00,
2013-11-15 10:42:00,41.3,15.0,29.62,West,263,13.8,13.8,34,0.00,CLR,,0.00,WeatherDisplay:10.37,2013-11-15 17:42:00,
2013-11-15 10:47:00,41.3,15.7,29.62,West,271,15.0,15.0,35,0.00,CLR,,0.00,WeatherDisplay:10.37,2013-11-15 17:47:00,
2013-11-15 10:52:00,41.5,15.2,29.62,NE,50,19.6,19.6,34,0.00,CLR,,0.00,WeatherDisplay:10.37,2013-11-15 17:52:00,
2013-11-15 10:57:00,41.3,15.7,29.62,West,263,11.5,11.5,35,0.00,CLR,,0.00,WeatherDisplay:10.37,2013-11-15 17:57:00,
2013-11-15 11:02:00,41.1,15.5,29.62,SSW,203,6.9,6.9,35,0.00,CLR,,0.00,WeatherDisplay:10.37,2013-11-15 18:02:00,
2013-11-15 11:07:00,40.8,16.5,29.62,West,274,16.1,16.1,37,0.00,CLR,,0.00,WeatherDisplay:10.37,2013-11-15 18:07:00,
2013-11-15 11:12:00,40.6,16.3,29.61,SW,226,9.2,9.2,37,0.00,CLR,,0.00,WeatherDisplay:10.37,2013-11-15 18:12:00,
2013-11-15 11:17:00,40.1,15.9,29.61,WNW,289,11.5,11.5,37,0.00,CLR,,0.00,WeatherDisplay:10.37,2013-11-15 18:17:00,
2013-11-15 11:22:00,39.6,16.6,29.61,West,273,6.0,6.0,39,0.00,CLR,,0.00,WeatherDisplay:10.37,2013-11-15 18:22:00,
2013-11-15 11:27:00,39.3,17.0,29.61,West,266,6.9,6.9,40,0.00,CLR,,0.00,WeatherDisplay:10.37,2013-11-15 18:27:00,
2013-11-15 11:32:00,39.2,16.9,29.60,WSW,252,11.5,11.5,40,0.00,CLR,,0.00,WeatherDisplay:10.37,2013-11-15 18:32:00,
2013-11-15 11:37:00,39.5,17.1,29.60,West,275,12.7,12.7,40,0.00,CLR,,0.00,WeatherDisplay:10.37,2013-11-15 18:37:00,
2013-11-15 11:42:00,39.8,16.8,29.60,West,281,11.5,11.5,39,0.00,CLR,,0.00,WeatherDisplay:10.37,2013-11-15 18:42:00,
2013-11-15 11:47:00,39.8,17.4,29.59,West,267,16.1,16.1,40,0.00,CLR,,0.00,WeatherDisplay:10.37,2013-11-15 18:47:00,
2013-11-15 11:52:00,39.6,17.8,29.59,West,270,11.5,11.5,41,0.00,CLR,,0.00,WeatherDisplay:10.37,2013-11-15 18:52:00,
2013-11-15 11:57:00,39.5,17.7,29.59,West,275,11.5,11.5,41,0.00,CLR,,0.00,WeatherDisplay:10.37,2013-11-15 18:57:00,
2013-11-15 12:02:00,39.6,17.2,29.59,WSW,244,3.5,3.5,40,0.00,CLR,,0.00,WeatherDisplay:10.37,2013-11-15 19:02:00,
2013-11-15 12:07:00,39.9,17.5,29.58,West,263,8.1,8.1,40,0.00,CLR,,0.00,WeatherDisplay:10.37,2013-11-15 19:07:00,
2013-11-15 12:12:00,39.9,15.1,29.58,WSW,242,13.8,13.8,36,0.00,CLR,,0.00,WeatherDisplay:10.37,2013-11-15 19:12:00,
2013-11-15 12:17:00,39.9,17.5,29.58,WNW,283,3.5,3.5,40,0.00,CLR,,0.00,WeatherDisplay:10.37,2013-11-15 19:17:00,
2013-11-15 12:22:00,39.9,17.5,29.57,SW,229,8.1,8.1,40,0.00,CLR,,0.00,WeatherDisplay:10.37,2013-11-15 19:22:00,
2013-11-15 12:27:00,39.9,18.1,29.56,SSW,213,9.2,9.2,41,0.00,CLR,,0.00,WeatherDisplay:10.37,2013-11-15 19:27:00,
2013-11-15 12:32:00,40.2,17.8,29.56,WSW,240,8.0,8.0,40,0.00,CLR,,0.00,WeatherDisplay:10.37,2013-11-15 19:32:00,
2013-11-15 12:37:00,40.2,17.8,29.56,West,273,3.5,3.5,40,0.00,CLR,,0.00,WeatherDisplay:10.37,2013-11-15 19:37:00,
2013-11-15 12:42:00,40.3,17.3,29.56,West,265,4.6,4.6,39,0.00,CLR,,0.00,WeatherDisplay:10.37,2013-11-15 19:42:00,
2013-11-15 12:47:00,40.3,17.3,29.56,WSW,237,3.5,3.5,39,0.00,CLR,,0.00,WeatherDisplay:10.37,2013-11-15 19:47:00,
2013-11-15 12:52:00,40.3,17.9,29.55,NW,305,5.0,5.0,40,0.00,CLR,,0.00,WeatherDisplay:10.37,2013-11-15 19:52:00,
2013-11-15 12:57:00,40.5,17.5,29.55,SSE,154,3.5,3.5,39,0.00,CLR,,0.00,WeatherDisplay:10.37,2013-11-15 19:57:00,
2013-11-15 13:02:00,40.6,16.9,29.55,SE,146,8.1,8.1,38,0.00,CLR,,0.00,WeatherDisplay:10.37,2013-11-15 20:02:00,
2013-11-15 13:07:00,40.8,17.1,29.55,WNW,292,4.6,4.6,38,0.00,CLR,,0.00,WeatherDisplay:10.37,2013-11-15 20:07:00,
2013-11-15 13:12:00,40.9,17.2,29.55,NW,308,2.3,2.3,38,0.00,CLR,,0.00,WeatherDisplay:10.37,2013-11-15 20:12:00,
2013-11-15 13:17:00,41.1,17.4,29.54,West,266,4.6,4.6,38,0.00,CLR,,0.00,WeatherDisplay:10.37,2013-11-15 20:17:00,
2013-11-15 13:22:00,41.1,16.8,29.53,SSE,147,4.6,4.6,37,0.00,CLR,,0.00,WeatherDisplay:10.37,2013-11-15 20:22:00,
2013-11-15 13:27:00,41.1,18.0,29.53,WNW,282,3.5,3.5,39,0.00,CLR,,0.00,WeatherDisplay:10.37,2013-11-15 20:27:00,
2013-11-15 13:32:00,41.1,16.8,29.53,SW,223,0.0,0.0,37,0.00,CLR,,0.00,WeatherDisplay:10.37,2013-11-15 20:32:00,
2013-11-15 13:37:00,41.1,17.4,29.53,South,175,3.5,3.5,38,0.00,CLR,,0.00,WeatherDisplay:10.37,2013-11-15 20:37:00,
2013-11-15 13:42:00,41.1,17.4,29.52,West,280,5.8,5.8,38,0.00,CLR,,0.00,WeatherDisplay:10.37,2013-11-15 20:42:00,
2013-11-15 13:47:00,41.2,16.9,29.52,SSE,167,4.6,4.6,37,0.00,CLR,,0.00,WeatherDisplay:10.37,2013-11-15 20:47:00,
2013-11-15 13:52:00,41.3,16.3,29.51,ESE,117,0.0,0.0,36,0.00,CLR,,0.00,WeatherDisplay:10.37,2013-11-15 20:52:00,
2013-11-15 13:57:00,41.6,17.2,29.50,SE,129,3.5,3.5,37,0.00,CLR,,0.00,WeatherDisplay:10.37,2013-11-15 20:57:00,
2013-11-15 14:02:00,41.9,17.5,29.50,SE,136,0.0,0.0,37,0.00,CLR,,0.00,WeatherDisplay:10.37,2013-11-15 21:02:00,
2013-11-15 14:07:00,42.1,16.4,29.49,ESE,117,4.6,4.6,35,0.00,CLR,,0.00,WeatherDisplay:10.37,2013-11-15 21:07:00,
2013-11-15 14:12:00,42.2,17.1,29.49,ESE,117,3.5,3.5,36,0.00,CLR,,0.00,WeatherDisplay:10.37,2013-11-15 21:12:00,
2013-11-15 14:17:00,42.2,16.5,29.48,SE,128,5.8,5.8,35,0.00,CLR,,0.00,WeatherDisplay:10.37,2013-11-15 21:17:00,
2013-11-15 14:22:00,42.2,16.5,29.48,SE,141,4.6,4.6,35,0.00,CLR,,0.00,WeatherDisplay:10.37,2013-11-15 21:22:00,
2013-11-15 14:27:00,42.1,17.7,29.48,SE,135,8.1,8.1,37,0.00,CLR,,0.00,WeatherDisplay:10.37,2013-11-15 21:27:00,
2013-11-15 14:32:00,41.9,18.1,29.48,ESE,107,3.5,3.5,38,0.00,CLR,,0.00,WeatherDisplay:10.37,2013-11-15 21:32:00,
2013-11-15 14:37:00,41.8,17.4,29.48,ESE,107,2.3,2.3,37,0.00,CLR,,0.00,WeatherDisplay:10.37,2013-11-15 21:37:00,
2013-11-15 14:42:00,41.6,17.8,29.48,NNW,338,15.0,15.0,38,0.00,CLR,,0.00,WeatherDisplay:10.37,2013-11-15 21:42:00,
2013-11-15 14:47:00,41.5,17.1,29.48,SSE,154,5.8,5.8,37,0.00,CLR,,0.00,WeatherDisplay:10.37,2013-11-15 21:47:00,
2013-11-15 14:52:00,41.5,18.4,29.47,SSE,153,0.0,0.0,39,0.00,CLR,,0.00,WeatherDisplay:10.37,2013-11-15 21:52:00,
2013-11-15 14:57:00,41.5,17.1,29.47,West,278,0.0,0.0,37,0.00,CLR,,0.00,WeatherDisplay:10.37,2013-11-15 21:57:00,
2013-11-15 15:02:00,41.6,19.0,29.48,West,279,0.0,0.0,40,0.00,CLR,,0.00,WeatherDisplay:10.37,2013-11-15 22:02:00,
2013-11-15 15:07:00,41.6,16.6,29.48,SE,139,8.1,8.1,36,0.00,CLR,,0.00,WeatherDisplay:10.37,2013-11-15 22:07:00,
2013-11-15 15:12:00,41.8,18.0,29.48,SE,140,5.0,5.0,38,0.00,CLR,,0.00,WeatherDisplay:10.37,2013-11-15 22:12:00,
2013-11-15 15:17:00,41.9,16.2,29.47,WNW,291,6.0,6.0,35,0.00,CLR,,0.00,WeatherDisplay:10.37,2013-11-15 22:17:00,
2013-11-15 15:22:00,41.9,17.5,29.47,SW,216,12.7,12.7,37,0.00,CLR,,0.00,WeatherDisplay:10.37,2013-11-15 22:22:00,
2013-11-15 15:27:00,41.9,16.9,29.47,West,271,3.5,3.5,36,0.00,CLR,,0.00,WeatherDisplay:10.37,2013-11-15 22:27:00,
2013-11-15 15:32:00,41.8,16.8,29.47,NW,308,4.6,4.6,36,0.00,CLR,,0.00,WeatherDisplay:10.37,2013-11-15 22:32:00,
2013-11-15 15:37:00,41.6,17.8,29.47,SSW,207,2.3,0.0,38,0.00,CLR,,0.00,WeatherDisplay:10.37,2013-11-15 22:37:00,
2013-11-15 15:42:00,41.3,18.2,29.47,ENE,58,7.0,7.0,39,0.00,CLR,,0.00,WeatherDisplay:10.37,2013-11-15 22:42:00,
2013-11-15 15:47:00,41.2,18.1,29.47,West,265,5.0,5.0,39,0.00,CLR,,0.00,WeatherDisplay:10.37,2013-11-15 22:47:00,
2013-11-15 15:52:00,41.2,18.7,29.47,North,351,3.5,3.5,40,0.00,CLR,,0.00,WeatherDisplay:10.37,2013-11-15 22:52:00,
2013-11-15 15:57:00,41.1,18.6,29.47,North,351,1.0,0.0,40,0.00,CLR,,0.00,WeatherDisplay:10.37,2013-11-15 22:57:00,
2013-11-15 16:02:00,41.1,18.0,29.47,ESE,123,5.8,5.8,39,0.00,CLR,,0.00,WeatherDisplay:10.37,2013-11-15 23:02:00,
2013-11-15 16:07:00,41.1,18.0,29.47,SSE,159,1.2,0.0,39,0.00,CLR,,0.00,WeatherDisplay:10.37,2013-11-15 23:07:00,
2013-11-15 16:12:00,41.1,19.7,29.47,WNW,285,4.6,4.6,42,0.00,CLR,,0.00,WeatherDisplay:10.37,2013-11-15 23:12:00,
2013-11-15 16:17:00,40.9,18.4,29.46,ENE,74,5.8,5.8,40,0.00,CLR,,0.00,WeatherDisplay:10.37,2013-11-15 23:17:00,
2013-11-15 16:22:00,40.5,20.3,29.47,ESE,109,2.3,2.3,44,0.00,CLR,,0.00,WeatherDisplay:10.37,2013-11-15 23:22:00,
2013-11-15 16:27:00,40.3,19.0,29.46,NW,304,3.5,3.5,42,0.00,CLR,,0.00,WeatherDisplay:10.37,2013-11-15 23:27:00,
2013-11-15 16:32:00,40.1,19.4,29.47,SSE,157,8.1,8.1,43,0.00,CLR,,0.00,WeatherDisplay:10.37,2013-11-15 23:32:00,
2013-11-15 16:37:00,40.2,19.5,29.46,WSW,246,5.8,5.8,43,0.00,CLR,,0.00,WeatherDisplay:10.37,2013-11-15 23:37:00,
2013-11-15 16:42:00,40.3,18.4,29.46,SW,232,13.8,13.8,41,0.00,CLR,,0.00,WeatherDisplay:10.37,2013-11-15 23:42:00,
2013-11-15 16:47:00,40.6,19.3,29.47,NW,310,0.0,0.0,42,0.00,CLR,,0.00,WeatherDisplay:10.37,2013-11-15 23:47:00,
2013-11-15 16:52:00,40.2,20.0,29.47,SSW,196,0.0,0.0,44,0.00,CLR,,0.00,WeatherDisplay:10.37,2013-11-15 23:52:00,
2013-11-15 16:57:00,39.8,19.6,29.46,North,11,4.6,4.6,44,0.00,CLR,,0.00,WeatherDisplay:10.37,2013-11-15 23:57:00,
2013-11-15 17:02:00,39.6,20.0,29.47,WSW,258,3.5,3.5,45,0.00,CLR,,0.00,WeatherDisplay:10.37,2013-11-16 00:02:00,
2013-11-15 17:07:00,39.3,19.7,29.47,SE,132,3.5,3.5,45,0.00,CLR,,0.00,WeatherDisplay:10.37,2013-11-16 00:07:00,
2013-11-15 17:12:00,39.1,20.5,29.46,SE,135,0.0,0.0,47,0.00,CLR,,0.00,WeatherDisplay:10.37,2013-11-16 00:12:00,
2013-11-15 17:17:00,38.9,21.3,29.47,SSE,158,4.0,4.0,49,0.00,CLR,,0.00,WeatherDisplay:10.37,2013-11-16 00:17:00,
2013-11-15 17:22:00,38.9,21.3,29.47,WNW,298,3.5,3.5,49,0.00,CLR,,0.00,WeatherDisplay:10.37,2013-11-16 00:22:00,
2013-11-15 17:27:00,38.8,21.3,29.47,SE,124,4.6,4.6,49,0.00,CLR,,0.00,WeatherDisplay:10.37,2013-11-16 00:27:00,
2013-11-15 17:32:00,38.5,22.4,29.47,WSW,238,0.0,0.0,52,0.00,CLR,,0.00,WeatherDisplay:10.37,2013-11-16 00:32:00,
2013-11-15 17:37:00,38.3,23.1,29.46,SSE,167,3.5,3.5,54,0.00,CLR,,0.00,WeatherDisplay:10.37,2013-11-16 00:37:00,
2013-11-15 17:42:00,38.2,23.0,29.47,SSE,167,0.0,0.0,54,0.00,CLR,,0.00,WeatherDisplay:10.37,2013-11-16 00:42:00,
2013-11-15 17:47:00,38.0,22.8,29.46,SSE,167,0.0,0.0,54,0.00,CLR,,0.00,WeatherDisplay:10.37,2013-11-16 00:47:00,
2013-11-15 17:52:00,37.8,23.1,29.45,NE,55,8.0,8.0,55,0.00,CLR,,0.00,WeatherDisplay:10.37,2013-11-16 00:52:00,
2013-11-15 17:57:00,37.8,22.6,29.47,SSW,208,1.2,1.2,54,0.00,CLR,,0.00,WeatherDisplay:10.37,2013-11-16 00:57:00,
2013-11-15 18:02:00,37.8,22.2,29.47,SSW,208,1.2,0.0,53,0.00,CLR,,0.00,WeatherDisplay:10.37,2013-11-16 01:02:00,
2013-11-15 18:07:00,37.8,22.2,29.46,ENE,57,3.5,3.5,53,0.00,CLR,,0.00,WeatherDisplay:10.37,2013-11-16 01:07:00,
2013-11-15 18:12:00,37.8,22.6,29.46,ENE,57,0.0,0.3,54,0.00,CLR,,0.00,WeatherDisplay:10.37,2013-11-16 01:12:00,
2013-11-15 18:17:00,37.8,21.7,29.45,East,96,5.0,5.0,52,0.00,CLR,,0.00,WeatherDisplay:10.37,2013-11-16 01:17:00,
2013-11-15 18:22:00,37.8,23.1,29.44,ESE,106,1.2,1.2,55,0.00,CLR,,0.00,WeatherDisplay:10.37,2013-11-16 01:22:00,
2013-11-15 18:27:00,37.6,23.3,29.45,ESE,123,1.2,1.2,56,0.00,CLR,,0.00,WeatherDisplay:10.37,2013-11-16 01:27:00,
2013-11-15 18:32:00,37.6,23.7,29.45,SSE,148,1.2,0.0,57,0.00,CLR,,0.00,WeatherDisplay:10.37,2013-11-16 01:32:00,
2013-11-15 18:37:00,37.5,23.6,29.45,West,262,0.0,0.0,57,0.00,CLR,,0.00,WeatherDisplay:10.37,2013-11-16 01:37:00,
2013-11-15 18:42:00,37.5,23.6,29.44,West,262,1.2,0.0,57,0.00,CLR,,0.00,WeatherDisplay:10.37,2013-11-16 01:42:00,
2013-11-15 18:47:00,37.5,24.1,29.44,West,262,0.0,0.0,58,0.00,CLR,,0.00,WeatherDisplay:10.37,2013-11-16 01:47:00,
2013-11-15 18:52:00,37.3,24.3,29.44,East,83,4.6,4.6,59,0.00,CLR,,0.00,WeatherDisplay:10.37,2013-11-16 01:52:00,
2013-11-15 18:57:00,37.2,24.2,29.45,NNW,333,0.0,0.0,59,0.00,CLR,,0.00,WeatherDisplay:10.37,2013-11-16 01:57:00,
2013-11-15 19:02:00,37.0,27.1,29.44,West,268,3.5,0.0,67,0.00,CLR,,0.00,WeatherDisplay:10.37,2013-11-16 02:02:00,
2013-11-15 19:07:00,36.5,27.3,29.44,WNW,298,0.0,0.0,69,0.00,CLR,,0.00,WeatherDisplay:10.37,2013-11-16 02:07:00,
2013-11-15 19:12:00,36.2,28.4,29.44,WNW,298,0.0,0.0,73,0.00,CLR,,0.00,WeatherDisplay:10.37,2013-11-16 02:12:00,
2013-11-15 19:17:00,35.5,28.4,29.44,WNW,298,2.3,2.3,75,0.00,CLR,,0.00,WeatherDisplay:10.37,2013-11-16 02:17:00,
2013-11-15 19:22:00,34.9,29.0,29.44,WNW,298,0.0,0.0,79,0.00,CLR,,0.00,WeatherDisplay:10.37,2013-11-16 02:22:00,
2013-11-15 19:27:00,34.1,29.2,29.44,WNW,298,0.0,0.0,82,0.00,CLR,,0.00,WeatherDisplay:10.37,2013-11-16 02:27:00,
2013-11-15 19:32:00,33.7,29.4,29.44,WNW,298,0.0,0.0,84,0.00,CLR,,0.00,WeatherDisplay:10.37,2013-11-16 02:32:00,
2013-11-15 19:37:00,33.4,29.4,29.44,WNW,298,0.0,0.0,85,0.00,CLR,,0.00,WeatherDisplay:10.37,2013-11-16 02:37:00,
2013-11-15 19:42:00,33.1,29.4,29.44,WNW,298,0.0,0.0,86,0.00,CLR,,0.00,WeatherDisplay:10.37,2013-11-16 02:42:00,
2013-11-15 19:47:00,32.9,29.5,29.45,WNW,298,0.0,0.0,87,0.00,CLR,,0.00,WeatherDisplay:10.37,2013-11-16 02:47:00,
2013-11-15 19:52:00,32.8,29.4,29.44,WNW,298,0.0,0.0,87,0.00,CLR,,0.00,WeatherDisplay:10.37,2013-11-16 02:52:00,
2013-11-15 19:57:00,32.7,29.5,29.44,WNW,298,0.0,0.0,88,0.00,CLR,,0.00,WeatherDisplay:10.37,2013-11-16 02:57:00,
2013-11-15 20:02:00,32.7,29.5,29.44,WNW,298,0.0,0.0,88,0.00,CLR,,0.00,WeatherDisplay:10.37,2013-11-16 03:02:00,
2013-11-15 20:07:00,32.5,29.6,29.43,WNW,298,0.0,0.0,89,0.00,CLR,,0.00,WeatherDisplay:10.37,2013-11-16 03:07:00,
2013-11-15 20:12:00,32.4,29.5,29.43,WNW,298,0.0,0.0,89,0.00,CLR,,0.00,WeatherDisplay:10.37,2013-11-16 03:12:00,
2013-11-15 20:17:00,32.4,29.8,29.43,WNW,298,0.0,0.0,90,0.00,CLR,,0.00,WeatherDisplay:10.37,2013-11-16 03:17:00,
2013-11-15 20:22:00,32.2,29.6,29.44,WNW,298,0.0,0.0,90,0.00,CLR,,0.00,WeatherDisplay:10.37,2013-11-16 03:22:00,
2013-11-15 20:27:00,32.2,29.6,29.43,WNW,298,0.0,0.0,90,0.00,CLR,,0.00,WeatherDisplay:10.37,2013-11-16 03:27:00,
2013-11-15 20:32:00,32.2,29.9,29.43,WNW,298,0.0,0.0,91,0.00,CLR,,0.00,WeatherDisplay:10.37,2013-11-16 03:32:00,
2013-11-15 20:37:00,32.2,29.9,29.43,WNW,298,0.0,0.0,91,0.00,CLR,,0.00,WeatherDisplay:10.37,2013-11-16 03:37:00,
2013-11-15 20:42:00,32.1,29.8,29.44,WNW,298,0.0,0.0,91,0.00,CLR,,0.00,WeatherDisplay:10.37,2013-11-16 03:42:00,
2013-11-15 20:47:00,32.1,29.8,29.44,WNW,298,0.0,0.0,91,0.00,CLR,,0.00,WeatherDisplay:10.37,2013-11-16 03:47:00,
2013-11-15 20:52:00,31.9,29.6,29.44,WNW,298,0.0,0.0,91,0.00,CLR,,0.00,WeatherDisplay:10.37,2013-11-16 03:52:00,
2013-11-15 20:57:00,31.9,29.6,29.43,WNW,298,0.0,0.0,91,0.00,CLR,,0.00,WeatherDisplay:10.37,2013-11-16 03:57:00,
2013-11-15 21:02:00,31.8,29.5,29.43,WNW,298,0.0,0.0,91,0.00,CLR,,0.00,WeatherDisplay:10.37,2013-11-16 04:02:00,
2013-11-15 21:07:00,31.6,29.3,29.43,WNW,298,0.0,0.0,91,0.00,CLR,,0.00,WeatherDisplay:10.37,2013-11-16 04:07:00,
2013-11-15 21:12:00,31.6,29.3,29.43,WNW,298,0.0,0.0,91,0.00,CLR,,0.00,WeatherDisplay:10.37,2013-11-16 04:12:00,
2013-11-15 21:17:00,31.5,29.2,29.43,WNW,298,0.0,0.0,91,0.00,CLR,,0.00,WeatherDisplay:10.37,2013-11-16 04:17:00,
2013-11-15 21:22:00,31.5,29.4,29.43,WNW,298,0.0,0.0,92,0.00,CLR,,0.00,WeatherDisplay:10.37,2013-11-16 04:22:00,
2013-11-15 21:27:00,31.5,29.4,29.42,WNW,298,0.0,0.0,92,0.00,CLR,,0.00,WeatherDisplay:10.37,2013-11-16 04:27:00,
2013-11-15 21:32:00,31.5,29.4,29.42,WNW,298,0.0,0.0,92,0.00,CLR,,0.00,WeatherDisplay:10.37,2013-11-16 04:32:00,
2013-11-15 21:37:00,31.5,29.4,29.41,WNW,298,0.0,0.0,92,0.00,CLR,,0.00,WeatherDisplay:10.37,2013-11-16 04:37:00,
2013-11-15 21:42:00,31.3,29.2,29.41,WNW,298,0.0,0.0,92,0.00,CLR,,0.00,WeatherDisplay:10.37,2013-11-16 04:42:00,
2013-11-15 21:47:00,31.2,29.1,29.41,WNW,298,0.0,0.0,92,0.00,CLR,,0.00,WeatherDisplay:10.37,2013-11-16 04:47:00,
2013-11-15 21:52:00,31.2,29.1,29.41,WNW,298,0.0,0.0,92,0.00,CLR,,0.00,WeatherDisplay:10.37,2013-11-16 04:52:00,
2013-11-15 21:57:00,31.0,28.9,29.41,WNW,298,0.0,0.0,92,0.00,CLR,,0.00,WeatherDisplay:10.37,2013-11-16 04:57:00,
2013-11-15 22:01:00,31.0,28.9,29.40,WNW,298,0.0,0.0,92,0.00,CLR,,0.00,WeatherDisplay:10.37,2013-11-16 05:01:00,
2013-11-15 22:02:00,31.0,28.9,29.40,WNW,298,0.0,0.0,92,0.00,CLR,,0.00,WeatherDisplay:10.37,2013-11-16 05:02:00,
2013-11-15 22:03:00,31.0,28.9,29.40,WNW,298,0.0,0.0,92,0.00,CLR,,0.00,WeatherDisplay:10.37,2013-11-16 05:03:00,
2013-11-15 22:08:00,31.0,28.9,29.40,WNW,298,0.0,0.0,92,0.00,CLR,,0.00,WeatherDisplay:10.37,2013-11-16 05:08:00,
2013-11-15 22:13:00,31.0,28.9,29.40,WNW,298,0.0,0.0,92,0.00,CLR,,0.00,WeatherDisplay:10.37,2013-11-16 05:13:00,
2013-11-15 22:18:00,31.0,28.9,29.41,WNW,298,0.0,0.0,92,0.00,CLR,,0.00,WeatherDisplay:10.37,2013-11-16 05:18:00,
2013-11-15 22:23:00,31.0,28.9,29.42,WNW,298,0.0,0.0,92,0.00,CLR,,0.00,WeatherDisplay:10.37,2013-11-16 05:23:00,
2013-11-15 22:28:00,31.2,29.1,29.42,WNW,298,0.0,0.0,92,0.00,CLR,,0.00,WeatherDisplay:10.37,2013-11-16 05:28:00,
2013-11-15 22:33:00,31.2,29.1,29.41,WNW,298,0.0,0.0,92,0.00,CLR,,0.00,WeatherDisplay:10.37,2013-11-16 05:33:00,
2013-11-15 22:38:00,31.2,29.1,29.41,WNW,298,0.0,0.0,92,0.00,CLR,,0.00,WeatherDisplay:10.37,2013-11-16 05:38:00,
2013-11-15 22:43:00,31.2,29.1,29.40,WNW,298,0.0,0.0,92,0.00,CLR,,0.00,WeatherDisplay:10.37,2013-11-16 05:43:00,
2013-11-15 22:48:00,31.2,29.1,29.40,WNW,298,0.0,0.0,92,0.00,CLR,,0.00,WeatherDisplay:10.37,2013-11-16 05:48:00,
2013-11-15 22:53:00,31.2,29.4,29.40,WNW,298,0.0,0.0,93,0.00,CLR,,0.00,WeatherDisplay:10.37,2013-11-16 05:53:00,
2013-11-15 22:58:00,31.2,29.4,29.40,WNW,298,0.0,0.0,93,0.00,CLR,,0.00,WeatherDisplay:10.37,2013-11-16 05:58:00,
2013-11-15 23:03:00,31.2,29.4,29.41,WNW,298,0.0,0.0,93,0.00,CLR,,0.00,WeatherDisplay:10.37,2013-11-16 06:03:00,
2013-11-15 23:08:00,31.3,29.5,29.40,WNW,298,0.0,0.0,93,0.00,CLR,,0.00,WeatherDisplay:10.37,2013-11-16 06:08:00,
2013-11-15 23:13:00,31.2,29.4,29.41,WNW,298,0.0,0.0,93,0.00,CLR,,0.00,WeatherDisplay:10.37,2013-11-16 06:13:00,
2013-11-15 23:18:00,31.3,29.5,29.40,WNW,298,0.0,0.0,93,0.00,CLR,,0.00,WeatherDisplay:10.37,2013-11-16 06:18:00,
2013-11-15 23:23:00,31.3,29.5,29.40,WNW,298,0.0,0.0,93,0.00,CLR,,0.00,WeatherDisplay:10.37,2013-11-16 06:23:00,
2013-11-15 23:28:00,31.3,29.5,29.41,WNW,298,0.0,0.0,93,0.00,CLR,,0.00,WeatherDisplay:10.37,2013-11-16 06:28:00,
2013-11-15 23:33:00,31.3,29.5,29.41,WNW,298,0.0,0.0,93,0.00,CLR,,0.00,WeatherDisplay:10.37,2013-11-16 06:33:00,
2013-11-15 23:38:00,31.3,29.5,29.40,WNW,298,0.0,0.0,93,0.00,CLR,,0.00,WeatherDisplay:10.37,2013-11-16 06:38:00,
2013-11-15 23:43:00,31.3,29.5,29.41,WNW,298,0.0,0.0,93,0.00,CLR,,0.00,WeatherDisplay:10.37,2013-11-16 06:43:00,
2013-11-15 23:48:00,31.2,29.4,29.41,WNW,298,0.0,0.0,93,0.00,CLR,,0.00,WeatherDisplay:10.37,2013-11-16 06:48:00,
2013-11-15 23:53:00,31.2,29.4,29.40,WNW,298,0.0,0.0,93,0.00,CLR,,0.00,WeatherDisplay:10.37,2013-11-16 06:53:00,
2013-11-15 23:58:00,31.2,29.4,29.41,WNW,298,0.0,0.0,93,0.00,CLR,,0.00,WeatherDisplay:10.37,2013-11-16 06:58:00,